Regional Weather Roundup
Issued by NWS

Home | Current Version | Previous Version | Text Only | Print | Product List | Glossary On
Versions: 1 2 3 4 5 6 7 8 9 10 11 12 13 14 15 16 17 18 19 20 21 22 23 24 25 26 27 28 29 30 31 32 33 34 35 36 37 38 39 40 41 42 43 44 45 46 47 48 49 50
000
ASUS43 KTOP 200608
RWRKS

WEATHER ROUNDUP FOR KANSAS
NATIONAL WEATHER SERVICE GOODLAND KS
1200 AM CST FRI JAN 20 2017

NOTE:  "FAIR" INDICATES FEW OR NO CLOUDS BELOW 12,000 FEET WITH NO
SIGNIFICANT WEATHER AND/OR OBSTRUCTIONS TO VISIBILITY.

KSZ001>006-013>018-027>032-041>047-200700-
NORTHWEST KANSAS

CITY           SKY/WX    TMP DP  RH WIND       PRES   REMARKS
GOODLAND       CLOUDY    33  33 100 S7        29.52F FOG
6HR MIN TEMP:  33; 6HR MAX TEMP:  36;

HAYS           FOG       42  42 100 SE5       29.57S VSB 1/4
HILL CITY      FOG       39  39 100 CALM      29.56F VSB 1/2
6HR MIN TEMP:  38; 6HR MAX TEMP:  43;

RUSSELL        FOG       43  43 100 SE6       29.55F VSB 1/4
6HR MIN TEMP:  43; 6HR MAX TEMP:  44;

$$

KSZ061>065-074>080-084>089-200700-
SOUTHWEST KANSAS

CITY           SKY/WX    TMP DP  RH WIND       PRES   REMARKS
DODGE CITY     CLEAR     34  33  96 NE5       29.52F FOG
6HR MIN TEMP:  33; 6HR MAX TEMP:  43;

ELKHART          N/A     31  26  82 S3          N/A
GARDEN CITY    CLOUDY    31  29  92 CALM      29.52F
6HR MIN TEMP:  30; 6HR MAX TEMP:  43;

GREAT BEND     FOG       42  42 100 SW5       29.57S VSB 1/4
LIBERAL        CLOUDY    36  30  80 NE5       29.53S
PRATT            N/A     35  35  98 CALM      29.56F FOG
6HR MIN TEMP:  35; 6HR MAX TEMP:  41;

$$

KSZ066>073-081>083-090>101-200700-
SOUTHEAST KANSAS

CITY           SKY/WX    TMP DP  RH WIND       PRES   REMARKS
CHANUTE        CLOUDY    48  45  89 SE6       29.60F
6HR MIN TEMP:  47; 6HR MAX TEMP:  50;

COFFEYVILLE    CLOUDY    47  45  93 E6        29.60F
6HR MIN TEMP:  44; 6HR MAX TEMP:  51;

HUTCHINSON     FOG       44  44 100 S5        29.57F VSB 1/2
6HR MIN TEMP:  44; 6HR MAX TEMP:  47; 6HR PCP: TRACE;

MEDICINE LODGE   N/A     32  31  96 N5        29.54F
NEWTON         CLOUDY    45  45 100 SE5       29.57S FOG
PARSONS        CLOUDY    50  46  86 CALM      29.61F
6HR MIN TEMP:  45; 6HR MAX TEMP:  52;

WICHITA INTL   FOG       42  42 100 E3        29.57S VSB 1/4
6HR MIN TEMP:  40; 6HR MAX TEMP:  48;

WICHITA JABRA  FOG       44  44 100 E5        29.57F VSB 1/4
6HR MIN TEMP:  44; 6HR MAX TEMP:  46;

WICHITA MCCONL FOG       43  41  93 E3        29.57S VSB 1/2
WINFIELD       CLEAR     44  43  96 E5        29.58S
6HR MIN TEMP:  44; 6HR MAX TEMP:  50;

$$

KSZ007>012-019>026-033>040-048>060-102>105-200700-
NORTHEAST KANSAS

CITY           SKY/WX    TMP DP  RH WIND       PRES   REMARKS
CONCORDIA      FOG       42  42 100 SE5       29.58S VSB 1/4
6HR MIN TEMP:  41; 6HR MAX TEMP:  43;

EMPORIA        FOG       41  41 100 E3        29.59F VSB 1/2
6HR MIN TEMP:  39; 6HR MAX TEMP:  46; 6HR PCP: TRACE;

LAWRENCE       CLOUDY    45  45 100 CALM      29.61F FOG
6HR MIN TEMP:  45; 6HR MAX TEMP:  47; 6HR PCP:  0.02;

MANHATTAN      FOG       44  44 100 E5        29.58F VSB 1/4
6HR MIN TEMP:  43; 6HR MAX TEMP:  46;

MARYSVILLE     CLOUDY    41  41 100 CALM      29.59F FOG
OLATHE IND     CLOUDY    46  45  96 E5        29.61F FOG
6HR MIN TEMP:  46; 6HR MAX TEMP:  47; 6HR PCP: TRACE;

OLATHE EXE     CLOUDY    45  45 100 CALM      29.61F FOG
6HR MIN TEMP:  45; 6HR MAX TEMP:  46; 6HR PCP:  0.01;

SALINA           N/A    N/A N/A N/A MISG        N/A
TOPEKA BILLARD FOG       45  43  93 CALM      29.61S VSB 1/4
6HR MIN TEMP:  45; 6HR MAX TEMP:  47; 6HR PCP:  0.02;

TOPEKA FORBES  FOG       47  45  93 CALM      29.60F VSB 1
6HR MIN TEMP:  46; 6HR MAX TEMP:  47; 6HR PCP: TRACE;

$$




USA.gov is the U.S. government's official web portal to all federal, state and local government web resources and services.